www.pogodaiklimat.ru

Погода и климат >> Архив погоды >> Парагвай >> Пуэрто-Касадо


ПОГОДА в Пуэрто-Касадо

  • Прогноз погоды в Пуэрто-Касадо
  • Монитор погоды в Пуэрто-Касадо

АРХИВ ПОГОДЫ в Пуэрто-Касадо

Время (UTC), дата Ветер
(напр.,м/с)
 
Видим.   Явления Облачность Т
(С)
Тd
(С)
f
(%)
Тe
(С)
Тes
(С)
Комфортность P
(гПа)
Po
(гПа)
Тmin
(С)
Tmax
(С)
R
(мм)
R24
(мм)
S
(см)
12 11.06 В 1 20 км 8/0 2000 м
[Ac As]
+23.0 +19.9 83 +30 +31 очень
душно
1015.5 1006.5 +21.4
15 11.06 С 1 20 км 8/0 2000 м
[Ac trans Ci fib]
+30.4 +17.1 45 +34 +43 очень
душно
1014.2 1006.4
18 11.06 С 3 20 км 8/1 800 м
[Cu hum Ac trans Ci fib]
+32.0 +13.9 33 +33 +37 жарко 1011.9 1003.1
21 11.06 штиль 0 20 км 9/0 2000 м
[Ac As Ci fib]
+31.0 +14.7 37 +33 +33 душно 1012.9 1004.1
00 12.06 штиль 0 20 км 4/0 2000 м
[Ac As]
+25.0 +18.7 68 +30 +30 душно 1014.1 1005.1 +33.0
03 12.06 штиль 0 20 км 4/0 2000 м
[Ac As]
+24.0 +20.9 83 +30 +30 очень
душно
1013.1 1004.1
06 12.06 штиль 0 20 км 4/0 2000 м
[Ac As]
+23.4 +19.8 80 +30 +30 очень
душно
1013.2 1004.2
09 12.06 штиль 0 20 км ясно +22.0 +18.8 82 +27 +27 душно 1012.5 1003.4
12 12.06 штиль 0 20 км 4/0
[Ci fib]
+23.6 +19.5 78 +29 +31 душно 1013.5 1004.4 +22.0
15 12.06 С 3 20 км 5/1 800 м
[Cu hum Ac trans]
+29.6 +17.7 49 +34 +40 очень
душно
1013.0 1004.1
18 12.06 С 4 20 км 5/3 800 м
[Cu hum Ci fib]
+33.0 +13.1 30 +34 +37 очень
жарко
1010.4 1001.6
21 12.06 штиль 0 20 км 8/0 2000 м
[Ac As Ci fib]
+31.0 +12.4 32 +32 +32 жарко 1011.9 1003.1
00 13.06 С 2 20 км 4/0 2000 м
[Ac As]
+27.0 +17.5 56 +31 +31 душно 1012.4 1003.5 +34.0
03 13.06 В 2 20 км ясно +24.6 +17.2 63 +28 +28 душно 1013.1 1004.1
06 13.06 штиль 0 20 км ясно +23.0 +17.0 69 +28 +28 душно 1013.1 1004.1
09 13.06 штиль 0 20 км ясно +22.0 +18.8 82 +27 +27 душно 1013.8 1004.8
12 13.06 С 2 20 км 3/0
[Ci fib]
+23.6 +19.5 78 +29 +31 душно 1015.9 1006.8 +22.0
15 13.06 С 2 20 км ясно +30.0 +22.7 65 +40 +50 очень
душно
1015.4 1006.6
18 13.06 С 3 20 км 4/0
[Ci fib]
+32.0 +21.9 55 +41 +46 опасность
перегрева
1014.1 1005.1
21 13.06 С 1 20 км 5/0 2000 м
[Ac As]
+30.0 +22.7 65 +40 +40 очень
душно
1012.9 1004.1
00 14.06 штиль 0 20 км 5/0 2000 м
[Ac As Cc]
+24.8 +20.5 77 +31 +31 очень
душно
1013.1 1004.1 +34.0
03 14.06 штиль 0 20 км 5/0 2000 м
[Ac As]
+24.0 +20.9 83 +30 +30 очень
душно
1013.3 1004.3
06 14.06 штиль 0 20 км 6/0 2000 м
[Ac As Ci fib]
+22.2 +18.8 81 +28 +28 душно 1013.7 1004.6
09 14.06 штиль 0 20 км 4/0 2000 м
[Ac As]
+21.0 +18.8 87 +25 +25 комфорт 1014.5 1005.4
12 14.06 В 1 20 км 8/0 2000 м
[Ac As Ci fib]
+22.6 +20.1 86 +29 +31 очень
душно
1016.5 1007.4 +21.0
15 14.06 В 1 20 км 8/0 2000 м
[Ac As Ci fib]
+28.0 +20.4 63 +34 +42 очень
душно
1017.3 1008.4
18 14.06 С 2 20 км 9/0 2000 м
[Ac As Ci fib]
+31.0 +18.4 47 +36 +40 очень
душно
1013.9 1005.1
21 14.06 штиль 0 20 км 8/0 2000 м
[Ac As Ci fib]
+30.0 +19.3 53 +36 +36 очень
душно
1011.9 1003.1
00 15.06 штиль 0 20 км 5/0
[Ci fib]
+25.6 +20.1 72 +32 +32 очень
душно
1015.2 1006.2 +33.0
03 15.06 С 1 20 км 5/0
[Ci fib]
+25.0 +20.9 78 +31 +31 очень
душно
1015.2 1006.2
09 15.06 штиль 0 20 км 4/0
[Ci fib]
+23.0 +19.9 83 +30 +30 очень
душно
1013.5 1004.4
12 15.06 штиль 0 20 км 8/0 2000 м
[Ac As Ci fib]
+22.0 +18.8 82 +27 +29 душно 1015.5 1006.4 +22.0
18 15.06 С 1 20 км 8/0 2000 м
[Ac As Ci fib]
+33.0 +17.4 39 +37 +42 очень
душно
1011.9 1003.1
21 15.06 штиль 0 20 км 8/0
[Ci fib]
+31.0 +20.5 54 +38 +38 очень
душно
1012.9 1004.1
00 16.06 штиль 0 20 км 8/0
[Ci fib]
+25.0 +18.7 68 +30 +30 душно 1015.1 1006.1 +35.0
03 16.06 штиль 0 20 км 5/0
[Ci fib]
+24.0 +20.9 83 +30 +30 очень
душно
1015.1 1006.1
06 16.06 штиль 0 20 км 5/0
[Ci]
+23.2 +19.9 82 +30 +30 очень
душно
1017.3 1008.2
09 16.06 В 1 20 км 5/0 2000 м
[Ac trans]
+22.2 +18.7 81 +28 +28 душно 1017.5 1008.4
12 16.06 штиль 0 20 км 4/0 2000 м
[Ac trans]
+23.6 +19.5 78 +29 +31 душно 1018.5 1009.4 +22.0
15 16.06 С 1 20 км 8/0 2000 м
[Ac trans Ci fib]
+29.0 +16.1 46 +32 +40 душно 1019.1 1010.9
21 16.06 В 1 20 км 4/0
[Ci fib]
+28.0 +20.4 63 +34 +34 очень
душно
1017.8 1008.9
00 17.06 Ю 1 20 км ясно +20.0 +16.7 81 +24 +24 комфорт 1019.3 1010.1 +32.0
03 17.06 Ю 1 20 км ясно +19.0 +17.3 90 +22 +22 комфорт 1021.4 1012.2
09 17.06 Ю 1 10 км слаб. морось 10/10 300 м
[Sc]
+18.8 +17.1 90 +21 +21 комфорт 1019.8 1010.6 0.0
12 17.06 Ю 1 10 км слаб. морось 10/10 300 м
[Sc]
+18.0 +16.3 90 +19 +19 1021.8 1012.6 +18.0 0.1
15 17.06 Ю 1 20 км 10/6 300 м
[Sc Ac As]
+21.6 +19.1 86 +27 +28 душно 1020.6 1011.6
18 17.06 Ю 1 20 км 10/6 300 м
[Sc Ac As]
+22.0 +18.8 82 +27 +28 душно 1018.7 1009.6
21 17.06 Ю 1 20 км 8/8 450 м
[Sc]
+21.0 +16.0 73 +26 +26 душно 1016.5 1007.4
00 18.06 Ю 1 20 км 8/0
[Ci fib]
+19.0 +15.6 81 +21 +21 комфорт 1017.6 1008.4 +23.0
03 18.06 Ю 1 20 км 8/0
[Ci fib]
+18.4 +16.0 86 +20 +20 1018.9 1009.6
06 18.06 Ю 1 20 км 4/0
[Ci fib]
+17.6 +15.1 85 +19 +19 1016.9 1007.6
09 18.06 штиль 0 <100 м туман ?/? +17.0 +15.4 90 1014.1

 

Местоположение метеостанции Пуэрто-Касадо (Парагвай): широта -22.28 долгота -57.86 высота над уровнем моря 87 м.

В архиве по умолчанию представлена погода в Пуэрто-Касадо за последнюю неделю. Архивные данные за месяц целиком и за предыдущие месяцы, начиная с января 2011 года, Вы можете получить, выбрав интересующий диапазон дат из раскрывающегося списка и нажав кнопку "Ввод!".


*Определитесь, кто Вы:
робот инопланетянин человек

Внимание! Время в таблицах - всемирное. Для получения местного времени необходимо прибавить поправку, которая равна -4 ч.

Смотрите также архив погоды в соседних городах и на ближайших метеорологических станциях:

Погода в Порто Муртиньо (Мату-Гросу-ду-Сул, Бразилия) (72 км)
Погода в Бела-Виста (Мату-Гросу-ду-Сул, Бразилия) (137 км)
Погода в Консепсьоне (Парагвай) (138 км)
Погода в Посо Колорадо (Парагвай) (162 км)
Погода в Жардиме (Мату-Гросу-ду-Сул, Бразилия) (199 км)
Погода в Сан-Педро (Парагвай) (213 км)
Погода в Педро-Хуан-Кабальеро (Парагвай) (222 км)
Погода в Понта-Пора (Мату-Гросу-ду-Сул, Бразилия) (224 км)
Погода в Понта-Поране (Мату-Гросу-ду-Сул, Бразилия) (241 км)
Погода в Миранде (Мату-Гросу-ду-Сул, Бразилия) (256 км)

Пояснения к столбцам:

Ветер - указаны скорость ветра в м/с - средняя за 10 мин, порывы в срок и между сроками (в фигурных скобках) и направление, откуда дует ветер: С - северный, СВ - северо-восточный, В - восточный, ЮВ - юго-восточный, Ю - южный, ЮЗ - юго-западный, З - западный, СЗ - северо-западный.
Видимость - горизонтальная дальность видимости в метрах или километрах. При видимости от 1 до 10 км при отсутствии осадков обычно наблюдается дымка, при ухудшении видимости до 1 км и менее - туман. В сухую погоду видимость может ухудшаться дымом, пылью или мглою.
Явления - указаны атмосферные явления, наблюдавшиеся в срок или в последний час перед сроком; фигурными скобками обозначены явления, наблюдавшиеся между сроками (за 1-3 часа до срока); квадратными скобками обозначены град или гололедные отложения с указанием их диаметра в мм.
Облачность - указаны через наклонную черту общая и нижняя облачность в баллах и высота нижней границы облаков в метрах; квадратными скобками обозначены формы облаков: Ci - перистые, Cs - перисто-слоистые, Cc - перисто-кучевые, Ac - высококучевые, As - высокослоистые, Sc - слоисто-кучевые, Ns - слоисто-дождевые, Cu - кучевые, Cb - кучево-дождевые. Подробнее классификацию облаков см. в Атласе облаков (PDF).
T - Температура воздуха - температура, измеренная на высоте 2 м над землей.
Td - Температура точки росы - температура, при понижении до которой содержащийся в воздухе водяной пар достигнет насыщения.
f - Относительная влажность воздуха - влажноcть воздуха, измеренная на высоте 2 м над землей.
Te - Эффективная температура - температура, которую ощущает одетый по сезону человек в тени. Характеристика душности погоды. При расчете учитывается влияние влажности воздуха и скорости ветра на теплоощущения человека.
Tes - Эффективная температура на солнце - температура, которую ощущает человек, с поправкой на солнечный нагрев. Характеристика знойности погоды. Зависит от высоты солнца над горизонтом, облачности и скорости ветра. Ночью, в пасмурную погоду, а также при ветре 12 м/с и более поправка равна нулю.
P - Атмосферное давление - приведенное к уровню моря атмосферное давление.
Po - Атмосферное давление - измеренное на уровне метеостанции атмосферное давление.
Tmin - Минимальная температура - минимум температуры воздуха на высоте 2 м над землей.
Tmax - Максимальная температура - максимум температуры воздуха на высоте 2 м над землей.
R - Количество осадков - Количество выпавших осадков за период времени, мм. При наведении курсора мыши на число - период времени, за который выпало указанное количество осадков.
R24 - Количество осадков - Количество выпавших осадков за 24 часа, мм.
S - Снежный покров - Высота снежного покрова, см. При наведении курсора мыши на число - состояние снежного покрова и степень покрытия местности в баллах.